Location: Domont
(49.0278°N, 2.3264°E)
Time: 04:41:55
(UTC+00:00)

AO-92 - Visible Passes

Search period start: 29 June 2022 00:00
Search period end: 09 July 2022 00:00
Orbit: 472 x 481 km, 97.4° (Epoch: 28 June)

Date Brightness Start Highest point End Pass type
(mag) Time Alt. Az. Time Alt. Az. Time Alt. Az.
29 Jun ? 20:39:46 10° ESE 20:42:06 17° ENE 20:44:26 10° NNE visible
29 Jun ? 22:12:55 19° SSW 22:15:06 42° W 22:18:31 10° NNW visible
30 Jun ? 21:45:57 20° SSE 21:48:21 89° E 21:51:57 10° NNW visible
01 Jul ? 21:19:00 15° SE 21:21:43 42° ENE 21:25:07 10° N visible
01 Jul ? 22:53:12 11° SW 22:55:14 16° W 22:57:27 10° NW visible
02 Jul ? 20:52:21 10° ESE 20:55:09 22° ENE 20:57:58 10° NNE visible
02 Jul ? 22:26:14 17° SSW 22:28:19 30° W 22:31:30 10° NNW visible
03 Jul ? 21:59:15 21° S 22:01:30 63° W 22:05:03 10° NNW visible
04 Jul ? 21:32:16 18° SSE 21:34:45 61° ENE 21:38:18 10° N visible
04 Jul ? 23:07:17 10° WSW 23:08:27 11° W 23:09:37 10° WNW visible
05 Jul ? 21:05:17 12° SE 21:08:07 30° ENE 21:11:18 10° N visible
05 Jul ? 22:39:29 14° SW 22:41:28 22° W 22:44:18 10° NW visible
06 Jul ? 20:39:16 10° ESE 20:41:34 17° ENE 20:43:54 10° NNE visible
06 Jul ? 22:12:28 20° SSW 22:14:34 43° W 22:18:00 10° NNW visible
07 Jul ? 21:45:28 21° SSE 21:47:45 88° ENE 21:51:21 10° NNW visible
08 Jul ? 21:18:26 15° SE 21:21:02 41° ENE 21:24:26 10° N visible
08 Jul ? 22:52:38 11° SW 22:54:32 16° W 22:56:49 10° NW visible
